Location: Liberec
(50.7830°N, 15.0500°E)
Time: 04:19:32
(UTC+02:00)

ISS - Pass Details

Date: 20 May 2021
Orbit: 417 x 422 km, 51.6° (Epoch: 13 June)

Event Time Altitude Azimuth Distance (km) Brightness Sun altitude
Rises 01:19:24 0° 286° (WNW) 2,371 0.2 -19.1°
Reaches altitude 10° 01:21:33 10° 280° (W) 1,505 -0.9 -19.0°
Enters shadow 01:23:07 24° 268° (W) 918 -2.2 -19.0°
